Stündliche Wetter Holubcha

Heute, 21 Juni, Montag

Zeit Temperatur Niederschläge Wind Luftdruck Luftfeuchtigkeit
00:00 +18°C° 0 mm 2 m/S 735 mmHg 95%
01:00 +17°C° 0 mm 2 m/S 735 mmHg 95%
02:00 +18°C° 0 mm 2 m/S 734 mmHg 95%
03:00 +18°C° 0 mm 2 m/S 734 mmHg 96%
04:00 +18°C° 0 mm 2 m/S 734 mmHg 96%
05:00 +18°C° 0 mm 2 m/S 734 mmHg 97%
06:00 +19°C° 0 mm 2 m/S 734 mmHg 91%
07:00 +21°C° 0 mm 2 m/S 734 mmHg 86%
08:00 +22°C° 0 mm 3 m/S 734 mmHg 81%
09:00 +25°C° 0 mm 3 m/S 734 mmHg 76%
10:00 +26°C° 0 mm 2 m/S 734 mmHg 72%
11:00 +27°C° 0 mm 2 m/S 734 mmHg 67%
12:00 +27°C° 0.2 mm 2 m/S 734 mmHg 66%
13:00 +27°C° 0.2 mm 2 m/S 734 mmHg 65%
14:00 +28°C° 0 mm 2 m/S 734 mmHg 63%
15:00 +28°C° 0.1 mm 2 m/S 734 mmHg 65%
16:00 +27°C° 0.1 mm 2 m/S 734 mmHg 67%
17:00 +27°C° 0.1 mm 2 m/S 734 mmHg 69%
18:00 +26°C° 0.1 mm 2 m/S 734 mmHg 74%
19:00 +24°C° 0.1 mm 2 m/S 734 mmHg 80%
20:00 +23°C° 0.1 mm 2 m/S 734 mmHg 85%
21:00 +21°C° 0 mm 2 m/S 734 mmHg 87%
22:00 +20°C° 0 mm 2 m/S 734 mmHg 90%
23:00 +19°C° 0 mm 3 m/S 734 mmHg 93%

Morgen, 22 Juni, Dienstag

Zeit Temperatur Niederschläge Wind Luftdruck Luftfeuchtigkeit
00:00 +19°C° 0 mm 2 m/S 734 mmHg 93%
01:00 +19°C° 0 mm 2 m/S 734 mmHg 92%
02:00 +18°C° 0 mm 2 m/S 734 mmHg 92%
03:00 +18°C° 0 mm 2 m/S 735 mmHg 92%
04:00 +18°C° 0 mm 2 m/S 735 mmHg 92%
05:00 +18°C° 0 mm 2 m/S 735 mmHg 92%
06:00 +20°C° 0 mm 2 m/S 735 mmHg 88%
07:00 +23°C° 0 mm 2 m/S 735 mmHg 84%
08:00 +24°C° 0 mm 3 m/S 735 mmHg 80%
09:00 +25°C° 0 mm 3 m/S 735 mmHg 76%
10:00 +27°C° 0 mm 3 m/S 735 mmHg 71%
11:00 +28°C° 0 mm 3 m/S 735 mmHg 67%
12:00 +28°C° 0 mm 3 m/S 735 mmHg 65%
13:00 +29°C° 0 mm 3 m/S 735 mmHg 62%
14:00 +30°C° 0 mm 4 m/S 735 mmHg 60%
15:00 +29°C° 0.1 mm 4 m/S 735 mmHg 62%
16:00 +29°C° 0.1 mm 4 m/S 735 mmHg 65%
17:00 +28°C° 0.1 mm 4 m/S 735 mmHg 68%
18:00 +27°C° 0 mm 3 m/S 735 mmHg 74%
19:00 +25°C° 0 mm 3 m/S 735 mmHg 80%
20:00 +22°C° 0 mm 3 m/S 735 mmHg 86%
21:00 +21°C° 0 mm 2 m/S 735 mmHg 88%
22:00 +21°C° 0 mm 2 m/S 735 mmHg 90%
23:00 +20°C° 0 mm 2 m/S 735 mmHg 92%

übermorgen, 23 Juni, Mittwoch

Zeit Temperatur Niederschläge Wind Luftdruck Luftfeuchtigkeit
00:00 +20°C° 0 mm 2 m/S 735 mmHg 93%
01:00 +19°C° 0 mm 2 m/S 736 mmHg 93%
02:00 +19°C° 0 mm 2 m/S 736 mmHg 94%
03:00 +19°C° 0 mm 2 m/S 736 mmHg 94%
04:00 +19°C° 0 mm 2 m/S 736 mmHg 94%
05:00 +19°C° 0 mm 2 m/S 736 mmHg 94%
06:00 +21°C° 0 mm 2 m/S 736 mmHg 88%
07:00 +24°C° 0 mm 2 m/S 736 mmHg 83%
08:00 +25°C° 0 mm 2 m/S 737 mmHg 78%
09:00 +26°C° 0 mm 2 m/S 737 mmHg 75%
10:00 +27°C° 0 mm 2 m/S 737 mmHg 71%
11:00 +29°C° 0 mm 2 m/S 737 mmHg 67%
12:00 +29°C° 0 mm 2 m/S 737 mmHg 64%
13:00 +30°C° 0 mm 2 m/S 737 mmHg 61%
14:00 +30°C° 0 mm 2 m/S 737 mmHg 58%
15:00 +30°C° 0 mm 2 m/S 737 mmHg 60%
16:00 +30°C° 0 mm 2 m/S 737 mmHg 61%
17:00 +30°C° 0 mm 2 m/S 737 mmHg 63%
18:00 +28°C° 0 mm 2 m/S 737 mmHg 69%
19:00 +27°C° 0 mm 1 m/S 737 mmHg 75%
20:00 +26°C° 0 mm 1 m/S 737 mmHg 81%
21:00 +25°C° 0.2 mm 1 m/S 737 mmHg 84%
22:00 +24°C° 0.2 mm 1 m/S 737 mmHg 88%
23:00 +23°C° 0.2 mm 2 m/S 737 mmHg 92%

24 Juni, Donnerstag

Zeit Temperatur Niederschläge Wind Luftdruck Luftfeuchtigkeit
00:00 +22°C° 0.1 mm 1 m/S 737 mmHg 93%
01:00 +22°C° 0.1 mm 1 m/S 737 mmHg 93%
02:00 +22°C° 0.1 mm 1 m/S 737 mmHg 94%
03:00 +21°C° 0 mm 1 m/S 737 mmHg 94%
04:00 +21°C° 0 mm 1 m/S 737 mmHg 94%
05:00 +21°C° 0 mm 1 m/S 737 mmHg 94%
06:00 +23°C° 0 mm 1 m/S 737 mmHg 89%
07:00 +24°C° 0 mm 2 m/S 737 mmHg 84%
08:00 +26°C° 0 mm 2 m/S 738 mmHg 79%
09:00 +27°C° 0 mm 2 m/S 738 mmHg 74%
10:00 +28°C° 0 mm 3 m/S 738 mmHg 70%
11:00 +29°C° 0 mm 3 m/S 738 mmHg 65%
12:00 +30°C° 0.3 mm 3 m/S 738 mmHg 63%
13:00 +30°C° 0.3 mm 2 m/S 738 mmHg 61%
14:00 +31°C° 0.3 mm 2 m/S 738 mmHg 59%
15:00 +31°C° 0 mm 2 m/S 738 mmHg 59%
16:00 +31°C° 0 mm 1 m/S 737 mmHg 59%
17:00 +31°C° 0 mm 1 m/S 737 mmHg 60%
18:00 +29°C° 0 mm 1 m/S 737 mmHg 65%
19:00 +28°C° 0 mm 1 m/S 737 mmHg 71%
20:00 +26°C° 0 mm 1 m/S 737 mmHg 76%
21:00 +25°C° 0.3 mm 1 m/S 737 mmHg 79%
22:00 +24°C° 0.3 mm 1 m/S 737 mmHg 81%
23:00 +24°C° 0.3 mm 1 m/S 737 mmHg 83%

25 Juni, Freitag

Zeit Temperatur Niederschläge Wind Luftdruck Luftfeuchtigkeit
00:00 +23°C° 0 mm 1 m/S 737 mmHg 84%
01:00 +23°C° 0 mm 1 m/S 736 mmHg 85%
02:00 +21°C° 0 mm 0 m/S 736 mmHg 86%
03:00 +21°C° 0 mm 0 m/S 736 mmHg 86%
04:00 +21°C° 0 mm 0 m/S 736 mmHg 86%
05:00 +21°C° 0 mm 0 m/S 736 mmHg 86%
06:00 +24°C° 0 mm 1 m/S 736 mmHg 82%
07:00 +26°C° 0 mm 1 m/S 736 mmHg 79%
08:00 +27°C° 0 mm 2 m/S 736 mmHg 75%
09:00 +28°C° 0 mm 2 m/S 737 mmHg 71%
10:00 +29°C° 0 mm 2 m/S 737 mmHg 67%
11:00 +30°C° 0 mm 3 m/S 737 mmHg 63%
12:00 +31°C° 0 mm 3 m/S 737 mmHg 61%
13:00 +31°C° 0 mm 3 m/S 736 mmHg 59%
14:00 +33°C° 0 mm 3 m/S 736 mmHg 57%
15:00 +31°C° 0 mm 3 m/S 736 mmHg 60%
16:00 +31°C° 0 mm 3 m/S 736 mmHg 63%
17:00 +31°C° 0 mm 3 m/S 736 mmHg 66%
18:00 +29°C° 0 mm 3 m/S 736 mmHg 72%
19:00 +27°C° 0 mm 3 m/S 736 mmHg 78%
20:00 +26°C° 0 mm 3 m/S 735 mmHg 84%
21:00 +25°C° 0.1 mm 3 m/S 735 mmHg 85%
22:00 +24°C° 0.1 mm 3 m/S 735 mmHg 87%
23:00 +22°C° 0.1 mm 3 m/S 735 mmHg 89%

26 Juni, Samstag

Zeit Temperatur Niederschläge Wind Luftdruck Luftfeuchtigkeit
00:00 +23°C° 0.1 mm 2 m/S 735 mmHg 90%
01:00 +21°C° 0.1 mm 2 m/S 735 mmHg 91%
02:00 +21°C° 0.1 mm 2 m/S 735 mmHg 92%
03:00 +21°C° 0.8 mm 2 m/S 735 mmHg 92%
04:00 +21°C° 0.8 mm 2 m/S 735 mmHg 92%
05:00 +21°C° 0.8 mm 2 m/S 736 mmHg 92%
06:00 +23°C° 0.1 mm 2 m/S 736 mmHg 89%
07:00 +24°C° 0.1 mm 2 m/S 736 mmHg 87%
08:00 +25°C° 0.1 mm 2 m/S 736 mmHg 84%
09:00 +26°C° 0.1 mm 2 m/S 736 mmHg 81%
10:00 +26°C° 0.1 mm 2 m/S 736 mmHg 78%
11:00 +27°C° 0.1 mm 1 m/S 736 mmHg 75%
12:00 +27°C° 0.5 mm 2 m/S 736 mmHg 76%
13:00 +27°C° 0.5 mm 3 m/S 736 mmHg 76%
14:00 +27°C° 0.5 mm 3 m/S 736 mmHg 77%
15:00 +26°C° 2.7 mm 3 m/S 736 mmHg 82%
16:00 +25°C° 2.7 mm 4 m/S 736 mmHg 86%
17:00 +22°C° 2.7 mm 4 m/S 736 mmHg 90%
18:00 +22°C° 0.7 mm 3 m/S 736 mmHg 92%
19:00 +21°C° 0.7 mm 3 m/S 735 mmHg 93%
20:00 +21°C° 0.7 mm 2 m/S 735 mmHg 95%
21:00 +20°C° 0.2 mm 2 m/S 735 mmHg 95%
22:00 +20°C° 0.2 mm 1 m/S 735 mmHg 94%
23:00 +20°C° 0.2 mm 1 m/S 735 mmHg 94%
Mehr zeigen

Wir brauchen deine Erlaubnis

Meteoprog und unser Service Anbieter werden persönliche Daten aufbewahren, so wie Cookies, Geräte Bezeichnung oder ähnliche Technologien von deinem Gerät und Prozess, so wie Persönliche Daten Inhalte und Werbungen, genauso wie social Media und den Verkehr zu analysieren.

  • Aufbewahrung und/oder Zugang zu deiner Geräte Informationen.

    Cookies, Geräte Bezeichnung oder andere Informationen, können aufbewahrt oder Zugang zu deinem Gerät erhalten, für den Grund, der oben angegeben wird.

  • Personalisierte Werbung und Inhalte, Messungen, Einblick in das Publikum und Produkt Entwicklung.

    Werbungen und Inhalte können personalisiert werden, basierend auf ein Profil. Mehr Daten können besser personalisierte Werbungen und Inhalte hinzufügen. Werbung und Inhalte können gezeigt und gemessen werden. Einblicke über das Publikum, welche die Werbung gesehen haben und den Inhalt, können abgeleitet werden. So wie Daten können genutzt werden, um es zu verbessern oder die Benutzer Erfahrung zu verbessern das System und die Software.

Wenn du “Ich stimme zu” klickst, erlaubst du uns, die Cookies zu benutzen die Geräte Bezeichnung, den Web oder ähnliche Technologien zu benutzen. Deine Settings, können in deinem Gerät bei deinem Browser geändert werden.

Für den bestimmten Zweck, berechtigten Interessen beruhen darauf, mehr als auf den Inhalt. Du kannst mehr darüber in unseren Privaten und Cookie Politik lesen.